Location: *
(49.4547°N, 7.9131°E)
Time: 06:01:13
(UTC+00:00)

H-2A R/B - Pass Details

Date: 22 September 2019
Orbit: 734 x 836 km, 98.3° (Epoch: 17 October)

Event Time Altitude Azimuth Distance (km) Brightness Sun altitude
Exits shadow 20:21:02 16° 217° (SW) 1,869 4.0 -27.2°
Maximum altitude 20:24:03 28° 267° (W) 1,379 3.7 -27.6°
Drops below altitude 10° 20:28:26 10° 326° (NW) 2,314 5.4 -28.2°
Sets 20:31:05 0° 338° (NNW) 3,263 6.2 -28.5°
